Latest Weather Observations for Lucinda

IDQ60801

Issued at 5:32 am EST Wednesday 29 April 2015 (issued every 30 minutes, with the page automatically refreshed every 10 minutes)

About weather observations | Map of weather stations | Latest weather observations for QLD | Other Formats
Station Details ID: 032141 Name: LUCINDA POINT Lat: -18.52 Lon: 146.39 Height: 10.0 m
Data from the previous 72 hours. | See also: Recent months for locations in Queensland
Date/Time
EST
Temp
°C
App
Temp
°C
Dew
Point
Rel
Hum
%
Delta-T
°C
Wind Press
QNH
hPa
Press
MSL
hPa
Rain
since 9 am
mm
Dir
 
Spd
km/h
Gust
km/h
Spd
kts
Gust
kts
29/05:30am 21.8 19.7 14.7 64 4.2 SW 19 22 10 12 1016.8 1016.8 0.0
29/05:00am 21.0 18.4 13.7 63 4.2 SW 20 26 11 14 1016.6 1016.6 0.0
29/04:30am 21.0 18.2 14.2 65 4.0 WSW 22 26 12 14 1016.1 1016.1 0.0
29/04:00am 25.0 24.2 13.9 50 6.5 SE 11 20 6 11 1015.8 1015.8 0.0
29/03:30am 25.0 22.8 12.2 44 7.3 ESE 15 28 8 15 1015.8 1015.8 0.0
29/03:00am 24.9 22.9 12.8 47 7.0 ESE 15 26 8 14 1015.9 1015.9 0.0
29/02:30am 25.0 22.2 12.6 46 7.1 ESE 19 28 10 15 1015.9 1015.9 0.0
29/02:00am 25.1 22.2 13.0 47 7.0 ESE 20 32 11 17 1015.9 1015.9 0.0
29/01:30am 25.1 22.0 12.3 45 7.3 ESE 20 30 11 16 1016.1 1016.1 0.0
29/01:00am 25.3 21.7 12.9 46 7.2 ESE 24 37 13 20 1016.3 1016.3 0.0
29/12:30am 25.4 21.1 11.9 43 7.7 ESE 26 39 14 21 1016.7 1016.7 0.0
29/12:00am 25.4 21.7 11.6 42 7.8 ESE 22 37 12 20 1017.1 1017.1 0.0
 
Date/Time
EST
Temp
°C
App
Temp
°C
Dew
Point
Rel
Hum
%
Delta-T
°C
Wind Press
QNH
hPa
Press
MSL
hPa
Rain
since 9 am
mm
Dir
 
Spd
km/h
Gust
km/h
Spd
kts
Gust
kts
28/11:30pm 25.4 21.5 13.3 47 7.1 ESE 26 35 14 19 1017.1 1017.1 0.0
28/11:00pm 25.4 23.4 13.9 49 6.8 ESE 17 26 9 14 1017.3 1017.3 0.0
28/10:30pm 25.4 21.6 12.3 44 7.5 ESE 24 32 13 17 1017.5 1017.5 0.0
28/10:00pm 25.4 23.3 13.6 48 6.9 SSE 17 26 9 14 1017.7 1017.7 0.0
28/09:30pm 25.3 22.7 13.2 47 7.1 ESE 19 33 10 18 1017.8 1017.8 0.0
28/09:00pm 25.2 22.9 11.7 43 7.7 SE 15 26 8 14 1017.6 1017.6 0.0
28/08:30pm 25.1 22.9 12.0 44 7.5 SE 15 24 8 13 1017.5 1017.5 0.0
28/08:00pm 25.1 22.1 12.0 44 7.5 ESE 19 30 10 16 1017.3 1017.3 0.0
28/07:30pm 25.1 21.8 10.9 41 8.0 ESE 19 28 10 15 1016.8 1016.8 0.0
28/07:00pm 25.2 22.1 10.3 39 8.3 ESE 17 30 9 16 1016.4 1016.4 0.0
28/06:30pm 24.9 21.8 10.4 40 8.0 ESE 17 24 9 13 1016.1 1016.1 0.0
28/06:00pm 24.8 21.6 11.4 43 7.6 ESE 19 28 10 15 1015.8 1015.8 0.0
28/05:30pm 25.1 22.0 11.6 42 7.7 ESE 19 30 10 16 1015.7 1015.7 0.0
28/05:00pm 25.2 22.9 10.3 39 8.3 ESE 13 22 7 12 1015.5 1015.4 0.0
28/04:30pm 25.4 22.8 10.8 40 8.2 ESE 15 22 8 12 1015.3 1015.2 0.0
28/04:00pm 25.1 22.9 12.0 44 7.5 ESE 15 26 8 14 1015.2 1015.1 0.0
28/03:30pm 25.4 22.5 9.7 37 8.6 ESE 15 26 8 14 1015.0 1014.9 0.0
28/03:00pm 25.5 21.9 8.5 34 9.1 SE 17 28 9 15 1015.0 1014.9 0.0
28/02:30pm 25.6 23.5 11.0 40 8.2 SE 13 20 7 11 1015.2 1015.1 0.0
28/02:00pm 25.8 23.3 9.6 36 8.9 SSE 13 24 7 13 1015.6 1015.6 0.0
28/01:30pm 25.1 20.3 9.0 36 8.7 S 24 30 13 16 1016.0 1016.0 0.0
28/01:00pm 25.7 23.0 9.1 35 9.0 S 13 22 7 12 1016.4 1016.4 0.0
28/12:30pm 24.8 22.5 11.7 44 7.4 S 15 28 8 15 1016.9 1016.9 0.0
28/12:00pm 25.1 22.6 12.3 45 7.3 S 17 24 9 13 1017.4 1017.4 0.0
28/11:30am 25.5 22.0 7.1 31 9.7 SE 15 28 8 15 1017.7 1017.7 0.0
28/11:00am 25.3 22.1 8.3 34 9.1 SSE 15 26 8 14 1018.3 1018.3 0.0
28/10:30am 25.3 22.2 11.5 42 7.8 SE 19 30 10 16 1018.5 1018.5 0.0
28/10:00am 25.4 24.0 14.5 51 6.5 SE 15 26 8 14 1018.5 1018.5 0.0
28/09:30am 22.6 20.6 15.4 64 4.3 SW 20 24 11 13 1018.4 1018.4 0.0
28/09:00am 21.0 18.5 14.2 65 3.9 SW 20 24 11 13 1018.4 1018.4 0.0
28/08:30am 20.9 18.4 14.1 65 3.9 SW 20 24 11 13 1018.3 1018.3 0.0
28/08:00am 21.0 18.6 14.4 66 3.8 SW 20 22 11 12 1018.1 1018.1 0.0
28/07:30am 20.8 18.7 14.7 68 3.6 SW 19 20 10 11 1017.8 1017.8 0.0
28/07:00am 21.5 19.1 13.9 62 4.4 SW 19 22 10 12 1017.5 1017.5 0.0
28/06:30am 20.8 18.5 14.0 65 3.9 WSW 19 20 10 11 1017.1 1017.1 0.0
28/06:00am 20.5 18.6 14.2 67 3.7 WSW 17 20 9 11 1016.8 1016.8 0.0
28/05:30am 20.3 18.2 14.7 70 3.3 WSW 19 20 10 11 1016.4 1016.4 0.0
28/05:00am 19.9 17.4 13.6 67 3.6 WSW 19 20 10 11 1016.2 1016.2 0.0
28/04:30am 20.3 18.0 14.0 67 3.6 WSW 19 20 10 11 1015.9 1015.9 0.0
28/04:00am 20.4 17.9 14.1 67 3.6 WSW 20 24 11 13 1015.9 1015.9 0.0
28/03:30am 20.6 17.7 14.0 66 3.8 WSW 22 24 12 13 1015.9 1015.9 0.0
28/03:00am 20.5 17.9 13.9 66 3.8 WSW 20 22 11 12 1016.1 1016.1 0.0
28/02:30am 20.7 18.1 13.9 65 3.9 SW 20 20 11 11 1016.0 1016.0 0.0
28/02:00am 21.0 18.7 14.2 65 4.0 SW 19 20 10 11 1016.1 1016.1 0.0
28/01:30am 21.6 20.1 15.2 67 3.8 SW 17 19 9 10 1016.4 1016.4 0.0
28/01:00am 21.9 20.8 15.3 66 3.9 SW 15 17 8 9 1016.9 1016.9 0.0
28/12:30am 21.7 20.4 14.8 65 4.1 SW 15 15 8 8 1017.2 1017.2 0.0
28/12:00am 22.8 21.8 14.6 60 4.8 WSW 13 15 7 8 1017.5 1017.5 0.0
 
Date/Time
EST
Temp
°C
App
Temp
°C
Dew
Point
Rel
Hum
%
Delta-T
°C
Wind Press
QNH
hPa
Press
MSL
hPa
Rain
since 9 am
mm
Dir
 
Spd
km/h
Gust
km/h
Spd
kts
Gust
kts
27/11:30pm 24.5 23.0 10.4 41 7.8 E 9 15 5 8 1017.7 1017.7 0.0
27/11:00pm 24.7 22.4 10.6 41 7.8 ENE 13 20 7 11 1017.8 1017.8 0.0
27/10:30pm 24.7 23.1 10.2 40 8.0 ESE 9 13 5 7 1018.0 1018.0 0.0
27/10:00pm 24.8 23.6 10.3 40 8.0 ENE 7 11 4 6 1018.0 1018.0 0.0
27/09:30pm 24.9 23.0 10.4 40 8.0 ENE 11 13 6 7 1018.0 1018.0 0.0
27/09:00pm 24.9 22.8 11.1 42 7.7 NE 13 17 7 9 1017.8 1017.8 0.0
27/08:30pm 24.9 22.6 11.8 44 7.4 ENE 15 20 8 11 1017.5 1017.5 0.0
27/08:00pm 24.9 21.9 10.7 40 7.9 ENE 17 22 9 12 1017.1 1017.1 0.0
27/07:30pm 24.9 22.4 11.1 42 7.8 E 15 20 8 11 1016.5 1016.5 0.0
27/07:00pm 24.9 22.8 12.5 46 7.1 ENE 15 22 8 12 1016.1 1016.1 0.0
27/06:30pm 24.8 22.1 11.7 44 7.4 E 17 22 9 12 1015.6 1015.6 0.0
27/06:00pm 24.9 22.0 12.2 45 7.3 E 19 26 10 14 1015.5 1015.4 0.0
27/05:30pm 25.1 22.3 12.7 46 7.2 E 19 26 10 14 1015.1 1015.0 0.0
27/05:00pm 25.4 22.1 11.6 42 7.8 ESE 20 28 11 15 1014.9 1014.8 0.0
27/04:30pm 25.4 22.1 11.6 42 7.8 ESE 20 30 11 16 1014.7 1014.6 0.0
27/04:00pm 25.7 22.5 11.8 42 7.9 ESE 20 28 11 15 1014.5 1014.4 0.0
27/03:30pm 25.8 22.6 10.0 37 8.7 ESE 17 24 9 13 1014.3 1014.2 0.0
27/03:00pm 25.9 23.9 12.7 44 7.6 SE 15 24 8 13 1014.3 1014.2 0.0
27/02:30pm 25.8 23.8 12.6 44 7.6 SE 15 30 8 16 1014.3 1014.2 0.0
27/02:00pm 26.0 23.9 12.5 43 7.8 SE 15 24 8 13 1014.6 1014.5 0.0
27/01:30pm 26.1 23.6 11.1 39 8.5 ESE 15 22 8 12 1015.0 1014.9 0.0
27/01:00pm 25.9 23.8 9.7 36 8.9 SE 11 22 6 12 1015.2 1015.1 0.0
27/12:30pm 25.1 21.1 6.8 31 9.5 S 17 24 9 13 1015.5 1015.4 0.0
27/12:00pm 24.9 20.4 6.1 30 9.7 S 19 22 10 12 1015.9 1015.9 0.0
27/11:30am 24.8 19.5 2.9 24 10.6 S 20 26 11 14 1016.3 1016.3 0.0
27/11:00am 24.4 19.5 5.2 29 9.7 S 20 28 11 15 1016.8 1016.8 0.0
27/10:30am 23.9 19.2 5.3 30 9.4 SSW 19 22 10 12 1017.2 1017.2 0.0
27/10:00am 24.0 19.1 2.2 24 10.4 SSW 17 24 9 13 1017.4 1017.4 0.0
27/09:30am 23.5 17.8 0.6 22 10.5 SW 20 26 11 14 1017.4 1017.4 0.0
27/09:00am 22.2 17.3 6.8 37 7.9 SW 22 26 12 14 1017.2 1017.2 0.0
27/08:30am 21.4 15.9 7.6 41 7.1 SW 26 28 14 15 1017.0 1017.0 0.0
27/08:00am 21.3 17.2 8.6 44 6.7 SW 20 20 11 11 1016.8 1016.8 0.0
27/07:30am 20.9 16.5 8.9 46 6.3 WSW 22 24 12 13 1016.5 1016.5 0.0
27/07:00am 20.2 15.6 8.2 46 6.2 WSW 22 26 12 14 1016.3 1016.3 0.0
27/06:30am 21.1 16.8 10.9 52 5.6 WSW 24 28 13 15 1015.9 1015.9 0.0
27/06:00am 21.0 16.2 8.9 46 6.4 SW 24 26 13 14 1015.7 1015.7 0.0
27/05:30am 20.1 17.1 13.8 67 3.6 SW 22 24 12 13 1015.3 1015.2 0.0
27/05:00am 19.8 17.7 13.7 68 3.5 WSW 17 20 9 11 1015.2 1015.1 0.0
27/04:30am 21.5 19.3 13.2 59 4.8 WSW 17 20 9 11 1014.9 1014.8 0.0
27/04:00am 20.8 18.1 13.0 61 4.4 WSW 19 20 10 11 1014.8 1014.7 0.0
27/03:30am 21.4 18.6 13.3 60 4.6 WSW 20 24 11 13 1014.6 1014.5 0.0
27/03:00am 21.8 18.9 12.9 57 5.1 SW 20 24 11 13 1014.6 1014.5 0.0
27/02:30am 22.0 18.1 12.0 53 5.6 WSW 24 26 13 14 1014.6 1014.5 0.0
27/02:00am 22.2 18.2 10.4 47 6.5 WSW 22 24 12 13 1014.8 1014.7 0.0
27/01:30am 22.4 18.4 10.5 47 6.5 WSW 22 24 12 13 1014.9 1014.8 0.0
27/01:00am 22.4 18.7 12.6 54 5.6 WSW 24 26 13 14 1015.0 1014.9 0.0
27/12:30am 21.9 18.9 12.5 55 5.3 WSW 20 22 11 12 1015.3 1015.2 0.0
27/12:00am 22.0 19.7 13.1 57 5.1 SW 17 20 9 11 1015.6 1015.6 0.0
 
Date/Time
EST
Temp
°C
App
Temp
°C
Dew
Point
Rel
Hum
%
Delta-T
°C
Wind Press
QNH
hPa
Press
MSL
hPa
Rain
since 9 am
mm
Dir
 
Spd
km/h
Gust
km/h
Spd
kts
Gust
kts
26/11:30pm 22.3 19.9 12.5 53 5.6 SW 17 19 9 10 1015.6 1015.6 0.0
26/11:00pm 22.5 20.4 13.6 57 5.2 SW 17 20 9 11 1015.7 1015.7 0.0
26/10:30pm 23.7 23.5 15.7 61 4.8 SW 11 13 6 7 1015.6 1015.6 0.0
26/10:00pm 25.4 24.4 7.5 32 9.5 ENE 2 6 1 3 1015.6 1015.6 0.0
26/09:30pm 25.9 23.7 8.0 32 9.6 ENE 9 11 5 6 1015.7 1015.7 0.0
26/09:00pm 25.9 24.0 7.5 31 9.8 ENE 7 11 4 6 1015.5 1015.4 0.0
26/08:30pm 25.9 23.7 8.0 32 9.6 NE 9 11 5 6 1015.1 1015.0 0.0
26/08:00pm 26.0 23.2 7.1 30 10.0 NE 11 13 6 7 1014.9 1014.8 0.0
26/07:30pm 25.9 22.6 8.0 32 9.6 NE 15 17 8 9 1014.4 1014.3 0.0
26/07:00pm 25.8 22.8 7.9 32 9.6 ENE 13 17 7 9 1014.1 1014.0 0.0
26/06:30pm 26.0 23.0 7.6 31 9.8 ENE 13 19 7 10 1013.7 1013.6 0.0
26/06:00pm 26.0 23.0 7.6 31 9.8 E 13 19 7 10 1013.3 1013.2 0.0
26/05:30pm 26.3 22.4 6.9 29 10.2 ESE 17 22 9 12 1013.0 1012.9 0.0
26/05:00pm 26.8 23.1 7.8 30 10.2 ESE 17 20 9 11 1012.7 1012.6 0.0
26/04:30pm 27.5 24.1 5.7 25 11.3 ESE 13 17 7 9 1012.5 1012.4 0.0
26/04:00pm 28.0 24.8 5.0 23 11.8 E 11 19 6 10 1012.2 1012.1 0.0
26/03:30pm 27.7 24.3 4.1 22 11.9 SE 11 17 6 9 1012.1 1012.0 0.0
26/03:00pm 27.6 24.4 5.2 24 11.5 SE 11 17 6 9 1012.1 1012.0 0.0
26/02:30pm 26.7 23.6 5.6 26 10.9 SSE 11 17 6 9 1012.2 1012.1 0.0
26/02:00pm 26.4 23.0 5.9 27 10.6 S 13 22 7 12 1012.5 1012.4 0.0
26/01:30pm 26.4 23.1 4.8 25 11.0 S 11 15 6 8 1012.8 1012.7 0.0
26/01:00pm 26.2 23.8 6.8 29 10.2 S 9 15 5 8 1013.2 1013.1 0.0
26/12:30pm 25.5 21.8 4.6 26 10.5 S 13 17 7 9 1013.6 1013.5 0.0
26/12:00pm 25.2 20.3 4.9 27 10.2 S 20 26 11 14 1014.2 1014.1 0.0
26/11:30am 24.9 19.5 2.4 23 10.8 S 20 26 11 14 1014.8 1014.7 0.0
26/11:00am 24.7 20.0 3.4 25 10.4 SSW 17 20 9 11 1015.1 1015.0 0.0
26/10:30am 24.6 19.7 4.9 28 9.9 S 20 26 11 14 1015.4 1015.3 0.0
26/10:00am 24.2 19.4 5.5 30 9.5 SW 20 26 11 14 1015.5 1015.4 0.0
26/09:30am 24.0 19.2 4.4 28 9.7 SW 19 26 10 14 1015.5 1015.4 0.0
26/09:00am 23.6 18.8 5.5 31 9.1 SW 20 28 11 15 1015.2 1015.1 0.0
26/08:30am 23.4 18.2 5.3 31 9.1 SW 22 26 12 14 1014.8 1014.7 0.0
26/08:00am 23.1 17.5 5.5 32 8.8 SW 24 30 13 16 1014.4 1014.3 0.0
26/07:30am 23.1 17.1 5.5 32 8.8 SW 26 30 14 16 1014.1 1014.0 0.0
26/07:00am 23.2 17.3 5.6 32 8.9 SW 26 32 14 17 1013.8 1013.7 0.0
26/06:30am 23.9 18.7 7.1 34 8.7 SW 24 28 13 15 1013.2 1013.1 0.0
26/06:00am 24.1 18.7 6.4 32 9.1 SW 24 28 13 15 1012.8 1012.7 0.0

Other Formats:

Comma delimited format used in spreadsheet applications
http://www.bom.gov.au/fwo/IDQ60801/IDQ60801.94295.axf

JavaScript Object Notation format (JSON) in row-major order
http://www.bom.gov.au/fwo/IDQ60801/IDQ60801.94295.json